weather.gov     
National Weather Service

Other Surface Observations
NWS Homepage
This page is being discontinued on March 12, 2014.
The same data is available at this site. Please update your bookmarks.
Thank you, and we apologize for the inconvenience.
Please send an email to SR-SRH.Webmaster@noaa.gov with any concerns.


Current Version
Previous Version:    01  02  03  04  05  06  07  08  09  10  11  12  13  14  15  16  17  18  19  20  21  22  23  24  25  26  27  28  29  30  
   31  32  33  34  35  36  37  38  39  40  41  42  43  44  45  46  47  48  49  50  51  52  53  54  55  56  57  58  59  60  
[Printable]
791
SXUS55 KTWC 301915
OSOTWC

WEATHER ROUNDUP FOR SOUTHEAST ARIZONA
NATIONAL WEATHER SERVICE TUCSON AZ
1215 PM MST FRI JAN 30 2015

AZZ504>506-514-302015-
LOCATION       SKY/WX    TMP DP  RH WIND       PRES   REMARKS
TUCSON         LGT RAIN  57  53  86 E14       29.93F
DAVIS-MONTHAN  LGT RAIN  56  55  96 E13       29.92S
CHILDRENS PARK N/A       60  53  79 SE7               PIMA CO DEQ
ALVERNON/22ND  N/A      N/A N/A N/A N/A               PIMA CO DEQ
CHERRY/GLENN   N/A      N/A N/A N/A N/A               PIMA CO DEQ
TANGERINE      N/A       59 N/A N/A S4                PIMA CO DEQ
CONTL RANCH    N/A       62  55  78 S6                PIMA CO DEQ
GRANT/1ST      N/A       60  54  80 SE6               PIMA CO DEQ
CRAYCROFT/22ND N/A      N/A N/A N/A N/A               PIMA CO DEQ
GOLFLINKS/KOLB N/A       59  52  79 SE9               PIMA CO DEQ
AJO/12TH       N/A       60  52  76 SE12              PIMA CO DEQ
SAGUARO EAST   N/A      N/A N/A N/A N/A               PIMA CO DEQ
FAIRGROUNDS    N/A       54 N/A N/A SE16              PIMA CO DEQ
SAGUARO        N/A       57  53  85 E4                *SABINO CYN
SAN CARLOS     N/A       50  45  84 SE11G25           *SAN CARLOS
GREEN VALLEY   N/A       57  53  88 S3                PIMA CO DEQ
HORSE CAMP CYN N/A       45  43  92 E20G31            *ARAVAIPA CYN
RINCON MTNS    N/A       39  39  100 SE3G10           *NR MANNING CAMP
$$

AZZ509>511-302015-
LOCATION       SKY/WX    TMP DP  RH WIND       PRES   REMARKS
SAFFORD        LGT RAIN  47  45  93 S9        30.05F
STRAY HORSE    N/A       33  32  97 E4                *
TRAIL CABIN    N/A       38  38  99 E9G18             *N OF GRANVILLE
BLACK HILLS    N/A       48  46  92 SE15G25           *N OF FT THOMAS
DRY LAKE       N/A       35  35  100 SE10G22          *NATANES MTNS
NOON CREEK     N/A       42  38  86 SW4G15            *PINALENO MTNS
COLUMBINE      N/A       33  33  100 S7G16            *PINALENO MTNS
GUTHRIE        N/A       36  36  100 E11G19           *SW OF GUTHRIE
$$

AZZ502-503-513-302015-
LOCATION       SKY/WX    TMP DP  RH WIND       PRES   REMARKS
NOGALES        LGT RAIN  54  52  93 S7        29.95F FOG
SELLS          N/A       56  56  100 W6               *
SASABE         N/A       58  55  89 CALM              *ALTAR VLY
HOPKINS        N/A       43  43  100 SE9G22           *SANTA RITA MTNS
CARR CYN       N/A       50  46  85 SW6G14            *W OF HEREFORD
$$

AZZ507-508-512-302015-
LOCATION       SKY/WX    TMP DP  RH WIND       PRES   REMARKS
SIERRA VISTA   LGT RAIN  50  48  93 SE14G22   29.96F
DOUGLAS        LGT RAIN  50  46  86 SE18      30.02F
EMPIRE MTNS    N/A       51  50  97 SE9G15            *LAS CIENEGAS NCA
MULESHOE RANCH N/A       50  44  81 E10G21            *PRESERVE
HEADQUARTERS   N/A       43  40  90 NE13G22           *CHIRICAHUA MTNS
$$

.............................NOTES.............................
THIS IS AN AUTOMATED COLLECTIVE WITH MINIMAL QUALITY CONTROL.
PIMA CO DEQ SITES HAVE NONSTANDARD WIND SENSOR HEIGHTS.
PIMA CO DEQ SITES DO NOT REPORT WIND GUSTS.
* INDICATES WIND SENSORS LOCATED AT 20 FEET INSTEAD OF 33 FEET.
..............................KEY..............................
SKY/WX - SKY CONDITION/WEATHER
TMP    - TEMPERATURE IN FAHRENHEIT
DP     - DEWPOINT IN FAHRENHEIT
RH     - RELATIVE HUMIDITY IN PERCENT
WIND   - DIRECTION AND SPEED IN MILES PER HOUR (MPH)
VRB    - VARIABLE WIND DIRECTION
PRES   - MEAN SEA LEVEL PRESSURE IN INCHES OF MERCURY
         F - FALLING PRESSURE   R - RISING PRESSURE
         S - STEADY PRESSURE
VSB    - VISIBILITY IN MILES
HX     - HEAT INDEX IN FAHRENHEIT
WCI    - WIND CHILL INDEX IN FAHRENHEIT
N/A    - NOT AVAILABLE
AFB    - AIR FORCE BASE
         DAVIS-MONTHAN IS DAVIS-MONTHAN AIR FORCE BASE
CYN    - CANYON
MTNS   - MOUNTAINS
NCA    - NATIONAL CONSERVATION AREA
NR     - NEAR
VLY    - VALLEY
CONTL  - CONTINENTAL
PIMA CO DEQ - PIMA COUNTY DEPT OF ENVIRONMENTAL QUALITY




U.S. Dept. of Commerce
NOAA National Weather Service
1325 East West Highway
Silver Spring, MD 20910
E-mail: w-nws.webmaster@noaa.gov
Page last modified: May 16, 2007
NATIONAL WEATHER SERVICE: for Safety, for Work, for Fun - FOR LIFE